EA1QW Weather Reports


Display with metric or nautical units.
time (UTC)temp
F
wind
direction
speed
MPH
gust
MPH
rain 1hr
in
rain 24hr
in
rain mn
in
humidity
%
barometer
mb
20181119221519 55 45 3.0 9.0 0.00 0.24 0.02 84 1003.5
20181119221020 55 42 4.0 9.0 0.00 0.24 0.02 84 1003.5
20181119220533 55 15 5.0 10.0 0.00 0.24 0.02 85 1003.5
20181119220032 55 48 4.0 12.0 0.00 0.24 0.02 85 1003.5
20181119215534 55 41 6.0 12.0 0.00 0.47 0.02 85 1003.5
20181119214519 55 41 4.0 9.0 0.00 0.47 0.02 85 1003.7
20181119214020 55 29 4.0 9.0 0.00 0.47 0.02 85 1003.7
20181119213521 55 41 5.0 10.0 0.00 0.47 0.02 86 1003.6
20181119213019 55 34 5.0 11.0 0.00 0.47 0.02 85 1003.7
20181119212516 55 46 5.0 11.0 0.00 0.47 0.02 86 1003.7
20181119212016 55 44 5.0 8.0 0.00 0.47 0.02 86 1003.8
20181119211533 55 48 3.0 8.0 0.00 0.47 0.02 86 1003.8
20181119211015 55 40 3.0 9.0 0.00 0.47 0.02 86 1003.9
20181119210515 55 38 4.0 8.0 0.00 0.47 0.02 86 1003.9
20181119210030 55 27 4.0 8.0 0.00 0.47 0.02 86 1003.9
20181119205524 56 58 2.0 10.0 0.00 0.47 0.02 86 1003.9
20181119205022 56 22 4.0 10.0 0.00 0.47 0.02 86 1003.9
20181119204521 56 30 4.0 10.0 0.00 0.47 0.02 86 1003.9
20181119204016 56 51 4.0 10.0 0.00 0.47 0.02 86 1003.9
20181119203521 56 49 5.0 10.0 0.00 0.47 0.02 86 1003.9
20181119203017 56 33 4.0 10.0 0.00 0.47 0.02 86 1003.9
20181119202518 56 35 5.0 10.0 0.00 0.47 0.02 86 1003.9
20181119202016 56 40 4.0 10.0 0.00 0.47 0.02 86 1003.9
20181119201517 56 76 5.0 10.0 0.00 0.47 0.02 85 1003.9
20181119201028 56 32 3.0 10.0 0.00 0.47 0.02 85 1003.9
20181119200532 56 36 5.0 10.0 0.00 0.47 0.02 85 1003.9
20181119200027 56 38 3.0 7.0 0.00 0.47 0.02 84 1003.9
20181119195533 56 35 4.0 8.0 0.00 0.47 0.02 84 1003.9
20181119195023 56 14 3.0 8.0 0.00 0.47 0.02 84 1004.0
20181119194524 56 55 4.0 8.0 0.00 0.47 0.02 84 1003.9
20181119194022 56 40 4.0 8.0 0.00 0.47 0.02 85 1004.0
20181119193523 56 42 4.0 10.0 0.00 0.47 0.02 85 1004.1
20181119193025 56 25 6.0 10.0 0.00 0.47 0.02 85 1004.1
20181119192523 56 38 3.0 10.0 0.00 0.47 0.02 85 1004.1
20181119192019 56 30 4.0 10.0 0.00 0.47 0.02 85 1004.2
20181119191517 56 67 5.0 10.0 0.00 0.47 0.02 85 1004.1
20181119191017 56 38 5.0 10.0 0.00 0.47 0.02 86 1004.1
20181119190516 56 45 5.0 10.0 0.00 0.47 0.02 86 1004.0
20181119190020 56 30 6.0 10.0 0.00 0.47 0.02 87 1004.1
20181119185523 56 40 3.0 10.0 0.00 0.47 0.02 87 1004.1
20181119185021 56 49 6.0 10.0 0.00 0.47 0.02 87 1004.1
20181119184518 56 51 3.0 6.0 0.00 0.47 0.02 87 1004.0
20181119184031 56 46 3.0 6.0 0.00 0.47 0.02 88 1004.0
20181119183526 56 38 1.0 7.0 0.00 0.47 0.02 88 1004.0
20181119183017 56 47 2.0 8.0 0.00 0.47 0.02 88 1004.0
20181119182533 56 38 3.0 8.0 0.00 0.47 0.02 88 1004.0
20181119182029 56 71 0.0 7.0 0.00 0.47 0.02 88 1004.0
20181119181532 56 71 1.0 7.0 0.00 0.47 0.02 88 1003.9
20181119181025 56 82 1.0 8.0 0.00 0.47 0.02 88 1003.9
20181119180522 56 71 5.0 8.0 0.00 0.47 0.02 88 1003.9
20181119180024 56 89 4.0 9.0 0.00 0.47 0.02 88 1003.9
20181119175524 56 45 3.0 11.0 0.00 0.47 0.02 88 1003.8
20181119175021 56 53 5.0 11.0 0.00 0.47 0.02 88 1003.7
20181119174534 56 39 5.0 12.0 0.00 0.47 0.02 88 1003.7
20181119174034 56 44 4.0 12.0 0.00 0.47 0.02 88 1003.8
20181119173533 56 40 6.0 13.0 0.00 0.47 0.02 88 1003.8
20181119173026 56 59 4.0 10.0 0.00 0.47 0.02 88 1003.8
20181119172531 56 61 5.0 13.0 0.00 0.47 0.02 88 1003.8
20181119172022 56 13 8.0 13.0 0.00 0.47 0.02 88 1003.8
20181119171521 56 65 5.0 12.0 0.00 0.47 0.02 89 1003.8
20181119171021 56 26 5.0 12.0 0.00 0.47 0.02 89 1003.8
20181119170521 56 25 6.0 12.0 0.00 0.47 0.02 89 1003.8
20181119170033 56 63 8.0 11.0 0.00 0.47 0.02 89 1003.8
20181119165529 56 44 6.0 13.0 0.00 0.47 0.02 89 1003.8
20181119165029 56 50 5.0 13.0 0.00 0.47 0.02 89 1003.8
20181119164530 57 62 6.0 12.0 0.00 0.47 0.02 89 1003.7
20181119164030 57 75 3.0 14.0 0.00 0.47 0.02 90 1003.7
20181119163530 57 92 5.0 14.0 0.00 0.47 0.02 89 1003.7
20181119163028 57 346 6.0 14.0 0.00 0.47 0.02 89 1003.7
20181119162512 57 39 5.0 12.0 0.00 0.47 0.02 89 1003.7
20181119162016 57 50 5.0 12.0 0.00 0.47 0.02 89 1003.7
20181119161532 57 38 5.0 12.0 0.00 0.47 0.02 89 1003.6
20181119161026 57 66 4.0 14.0 0.00 0.47 0.02 89 1003.6
20181119160527 57 36 7.0 14.0 0.00 0.47 0.02 89 1003.6
20181119160027 57 49 6.0 14.0 0.00 0.47 0.02 88 1003.6
20181119155534 58 41 6.0 12.0 0.00 0.47 0.02 88 1003.6
20181119155028 58 30 5.0 15.0 0.00 0.47 0.02 88 1003.6
20181119154524 58 39 6.0 15.0 0.00 0.47 0.02 88 1003.6
20181119154017 58 42 8.0 14.0 0.00 0.47 0.02 87 1003.6
20181119153530 58 19 7.0 14.0 0.00 0.47 0.02 87 1003.6
20181119153029 59 49 6.0 10.0 0.00 0.47 0.02 86 1003.5
20181119152528 59 79 5.0 13.0 0.00 0.47 0.02 86 1003.5
20181119152024 59 49 5.0 16.0 0.00 0.47 0.02 86 1003.6
20181119151522 60 28 9.0 16.0 0.00 0.47 0.02 84 1003.5
20181119151021 60 45 5.0 11.0 0.00 0.47 0.02 83 1003.5
20181119150524 60 355 6.0 11.0 0.00 0.47 0.02 81 1003.4
20181119150017 60 44 4.0 12.0 0.00 0.47 0.02 82 1003.4
20181119145515 59 35 5.0 12.0 0.00 0.51 0.02 82 1003.4
20181119145013 59 26 6.0 11.0 0.00 0.51 0.02 82 1003.4
20181119144514 59 38 5.0 13.0 0.00 0.51 0.02 82 1003.3
20181119144014 59 31 7.0 13.0 0.00 0.51 0.02 82 1003.4
20181119143515 60 57 6.0 13.0 0.00 0.51 0.02 82 1003.4
20181119143032 60 24 7.0 12.0 0.00 0.51 0.02 82 1003.4
20181119142513 60 28 4.0 14.0 0.00 0.51 0.02 83 1003.4
20181119142015 59 90 7.0 14.0 0.00 0.51 0.02 83 1003.4
20181119141517 60 40 6.0 15.0 0.00 0.51 0.02 84 1003.3
20181119141019 60 19 5.0 15.0 0.00 0.51 0.02 83 1003.3
20181119140518 60 117 6.0 12.0 0.00 0.51 0.02 83 1003.3
20181119140030 60 54 7.0 13.0 0.00 0.51 0.02 83 1003.3
20181119135529 60 54 6.0 13.0 0.00 0.51 0.02 83 1003.4
20181119135030 60 81 4.0 11.0 0.00 0.51 0.02 84 1003.4
20181119134530 60 20 5.0 12.0 0.00 0.51 0.02 83 1003.5
20181119134026 60 46 6.0 12.0 0.00 0.51 0.02 84 1003.4
20181119133523 60 48 5.0 13.0 0.00 0.51 0.02 84 1003.5
20181119133016 60 39 7.0 13.0 0.00 0.51 0.02 84 1003.5
20181119132515 60 44 7.0 11.0 0.00 0.51 0.02 83 1003.5
20181119132015 60 5 4.0 11.0 0.00 0.51 0.02 84 1003.5
20181119131526 60 88 6.0 11.0 0.00 0.51 0.02 82 1003.5
20181119131022 60 46 4.0 8.0 0.00 0.51 0.02 81 1003.6
20181119130523 60 63 5.0 8.0 0.00 0.51 0.02 82 1003.6
20181119130015 60 55 3.0 9.0 0.00 0.51 0.02 82 1003.7
20181119125514 60 31 5.0 9.0 0.00 0.51 0.02 82 1003.7
20181119125029 60 36 6.0 9.0 0.00 0.51 0.02 81 1003.7
20181119124524 60 80 5.0 12.0 0.00 0.51 0.02 81 1003.8
20181119124017 60 76 4.0 12.0 0.00 0.51 0.02 82 1003.8
20181119123517 60 37 5.0 11.0 0.00 0.51 0.02 82 1003.8
20181119123022 60 42 5.0 9.0 0.00 0.51 0.02 82 1003.9
20181119122525 60 86 5.0 9.0 0.00 0.51 0.02 81 1004.0
20181119122024 60 52 5.0 10.0 0.00 0.51 0.02 82 1004.0
20181119121523 60 68 7.0 11.0 0.00 0.51 0.02 81 1004.1
20181119121020 60 44 5.0 9.0 0.00 0.51 0.02 82 1004.1
20181119120514 60 62 4.0 10.0 0.00 0.51 0.02 81 1004.1
20181119120012 60 53 5.0 10.0 0.00 0.51 0.02 81 1004.1
20181119115515 60 22 2.0 5.0 0.00 0.51 0.02 80 1004.2
20181119115027 60 349 2.0 5.0 0.00 0.51 0.02 81 1004.3
20181119114527 60 13 2.0 6.0 0.00 0.51 0.02 81 1004.3
20181119114026 59 348 2.0 6.0 0.00 0.51 0.02 81 1004.4
20181119113526 60 38 3.0 5.0 0.00 0.51 0.02 81 1004.4
20181119113022 60 37 1.0 3.0 0.00 0.51 0.02 82 1004.5
20181119112523 60 263 0.0 1.0 0.00 0.51 0.02 81 1004.5
20181119112021 59 263 0.0 4.0 0.00 0.51 0.02 82 1004.6
20181119111520 58 263 2.0 5.0 0.00 0.51 0.02 83 1004.6
20181119111033 58 263 2.0 5.0 0.00 0.51 0.02 83 1004.7
20181119110526 58 261 1.0 4.0 0.00 0.51 0.02 84 1004.8
20181119110019 58 257 1.0 4.0 0.04 0.51 0.02 85 1004.8
20181119105519 58 194 0.0 0.0 0.04 0.55 0.02 85 1004.9
20181119105016 58 194 0.0 2.0 0.04 0.55 0.02 85 1005.0
20181119104529 57 194 0.0 3.0 0.04 0.55 0.02 85 1005.0
20181119104024 57 194 0.0 3.0 0.04 0.55 0.02 85 1005.0
20181119103516 58 191 0.0 1.0 0.04 0.55 0.02 87 1005.1
20181119103030 57 191 0.0 1.0 0.04 0.55 0.02 86 1005.0
20181119102528 57 191 0.0 1.0 0.04 0.55 0.02 86 1004.9
20181119102022 56 191 0.0 1.0 0.04 0.55 0.02 89 1004.9
20181119101521 55 191 0.0 0.0 0.04 0.55 0.02 90 1005.0
20181119101021 55 191 0.0 1.0 0.04 0.55 0.02 89 1005.0
20181119100519 55 191 0.0 1.0 0.04 0.55 0.02 90 1004.9
20181119100013 55 149 0.0 0.0 0.00 0.51 0.01 91 1004.9
20181119095515 54 149 0.0 0.0 0.00 0.51 0.01 91 1004.9
20181119095030 54 149 0.0 0.0 0.00 0.51 0.01 92 1004.9
20181119094527 54 148 0.0 0.0 0.00 0.51 0.01 93 1005.0
20181119094022 53 149 0.0 0.0 0.00 0.51 0.01 94 1005.0
20181119093529 52 149 0.0 0.0 0.00 0.51 0.01 94 1005.0
20181119093014 52 149 0.0 0.0 0.00 0.51 0.01 94 1005.0
20181119092531 52 148 0.0 0.0 0.04 0.51 0.01 95 1005.1
20181119092032 51 149 0.0 0.0 0.04 0.51 0.01 95 1005.0
20181119091529 51 148 0.0 0.0 0.04 0.51 0.01 96 1005.1
20181119091025 51 148 0.0 0.0 0.04 0.51 0.01 96 1005.1
20181119090527 50 149 0.0 0.0 0.04 0.51 0.01 96 1005.1
20181119090028 49 149 0.0 0.0 0.04 0.51 0.01 96 1005.2
20181119085513 49 149 0.0 0.0 0.04 0.51 0.01 96 1005.0
20181119085031 48 149 0.0 0.0 0.04 0.51 0.01 96 1005.1
20181119084530 48 148 0.0 0.0 0.04 0.51 0.01 96 1005.1
20181119084030 48 149 0.0 0.0 0.04 0.51 0.01 96 1005.2
20181119083529 48 149 0.0 0.0 0.04 0.51 0.01 96 1005.1
20181119083029 47 149 0.0 0.0 0.04 0.51 0.01 96 1005.2
20181119082527 47 149 0.0 0.0 0.00 0.47 0.00 96 1005.1
20181119082028 46 149 0.0 0.0 0.00 0.47 0.00 96 1005.0
20181119081524 46 149 0.0 0.0 0.00 0.47 0.00 96 1004.9
20181119081026 45 149 0.0 0.0 0.00 0.47 0.00 96 1005.0
20181119080523 45 148 0.0 0.0 0.00 0.47 0.00 96 1004.9
20181119080019 45 148 0.0 0.0 0.00 0.47 0.00 96 1004.9
20181119075523 45 148 0.0 0.0 0.00 0.47 0.00 96 1004.9
20181119075018 45 148 0.0 0.0 0.00 0.47 0.00 96 1004.9
20181119074517 45 148 0.0 2.0 0.00 0.47 0.00 96 1004.8
20181119074018 45 149 1.0 2.0 0.00 0.47 0.00 96 1004.8
20181119073517 45 148 0.0 0.0 0.00 0.47 0.00 96 1004.8
20181119073014 45 148 0.0 0.0 0.00 0.47 0.00 96 1004.7
20181119072517 45 148 0.0 0.0 0.00 0.47 0.00 96 1004.7
20181119072019 45 148 0.0 0.0 0.00 0.47 0.00 96 1004.7
20181119071521 45 149 0.0 0.0 0.00 0.47 0.00 96 1004.6
20181119071022 45 148 0.0 0.0 0.00 0.47 0.00 96 1004.6
20181119070525 45 148 0.0 0.0 0.00 0.47 0.00 96 1004.6
20181119070016 45 148 0.0 0.0 0.00 0.47 0.00 96 1004.6
20181119065516 45 149 0.0 0.0 0.00 0.47 0.00 96 1004.6
20181119065017 45 148 0.0 0.0 0.00 0.47 0.00 96 1004.6
20181119064514 45 149 0.0 0.0 0.00 0.47 0.00 96 1004.5
20181119064027 45 149 0.0 0.0 0.00 0.47 0.00 96 1004.5
20181119063520 45 149 0.0 0.0 0.00 0.47 0.00 96 1004.5
20181119063021 46 149 0.0 0.0 0.00 0.47 0.00 96 1004.4
20181119062520 46 148 0.0 0.0 0.00 0.47 0.00 96 1004.4
20181119062013 46 148 0.0 0.0 0.00 0.47 0.00 96 1004.4
20181119061511 46 148 0.0 0.0 0.00 0.47 0.00 96 1004.3
20181119061029 46 148 0.0 0.0 0.00 0.47 0.00 96 1004.3
20181119060530 46 148 0.0 0.0 0.00 0.47 0.00 96 1004.4
20181119060030 46 149 0.0 0.0 0.00 0.47 0.00 96 1004.3
20181119055532 46 148 0.0 0.0 0.00 0.47 0.00 96 1004.3
20181119055032 46 148 0.0 0.0 0.00 0.47 0.00 96 1004.2
20181119054519 46 149 0.0 0.0 0.00 0.47 0.00 96 1004.2
20181119054017 47 149 0.0 0.0 0.00 0.47 0.00 95 1004.1
20181119053519 47 149 0.0 0.0 0.00 0.47 0.00 95 1004.1
20181119053015 47 148 0.0 0.0 0.00 0.47 0.00 96 1004.1
20181119052516 47 149 0.0 0.0 0.00 0.47 0.00 96 1004.0
20181119052014 47 148 0.0 0.0 0.00 0.47 0.00 96 1004.0
20181119051532 47 148 0.0 0.0 0.00 0.47 0.00 96 1003.9
20181119051028 47 148 0.0 0.0 0.00 0.47 0.00 95 1003.9
20181119050529 47 149 0.0 0.0 0.00 0.47 0.00 95 1003.9
20181119050027 47 149 0.0 0.0 0.00 0.47 0.00 95 1003.9
20181119045528 47 148 0.0 1.0 0.00 0.47 0.00 96 1003.8
20181119045027 48 148 0.0 0.0 0.00 0.47 0.00 95 1003.7
20181119044528 48 149 0.0 0.0 0.00 0.47 0.00 95 1003.7
20181119044023 48 149 0.0 0.0 0.00 0.47 0.00 95 1003.7
20181119043522 48 149 0.0 0.0 0.00 0.47 0.00 95 1003.7
20181119043023 48 149 0.0 0.0 0.00 0.47 0.00 95 1003.6
20181119042527 48 149 0.0 0.0 0.00 0.47 0.00 95 1003.5
20181119042029 49 148 0.0 0.0 0.00 0.47 0.00 95 1003.5
20181119041530 49 148 0.0 2.0 0.00 0.47 0.00 95 1003.6
20181119041026 49 149 0.0 2.0 0.00 0.47 0.00 95 1003.5
20181119040531 49 148 0.0 2.0 0.00 0.47 0.00 95 1003.5
20181119040031 49 148 0.0 2.0 0.00 0.47 0.00 95 1003.5
20181119035528 49 148 0.0 0.0 0.00 0.47 0.00 95 1003.5
20181119035023 49 149 0.0 1.0 0.00 0.47 0.00 95 1003.5
20181119034528 50 148 0.0 2.0 0.00 0.47 0.00 95 1003.5
20181119034029 50 149 0.0 1.0 0.00 0.47 0.00 95 1003.4
20181119033514 50 149 0.0 0.0 0.00 0.47 0.00 95 1003.4
20181119033012 50 149 0.0 2.0 0.00 0.47 0.00 95 1003.4
20181119032517 50 149 1.0 2.0 0.00 0.47 0.00 95 1003.4
20181119032015 50 149 0.0 0.0 0.00 0.47 0.00 95 1003.4
20181119031517 51 149 0.0 0.0 0.00 0.47 0.00 95 1003.3
20181119031015 51 149 0.0 0.0 0.00 0.47 0.00 95 1003.3
20181119030531 51 149 0.0 0.0 0.00 0.47 0.00 95 1003.1
20181119030028 51 149 0.0 0.0 0.00 0.47 0.00 95 1003.1
20181119025525 51 149 0.0 0.0 0.00 0.47 0.00 95 1003.1
20181119025022 51 149 0.0 0.0 0.00 0.47 0.00 95 1003.1
20181119024524 51 149 0.0 0.0 0.00 0.47 0.00 95 1003.1
20181119024021 51 149 0.0 0.0 0.00 0.47 0.00 95 1003.1
20181119023521 52 149 0.0 0.0 0.00 0.47 0.00 95 1003.1
20181119023021 52 149 0.0 0.0 0.00 0.47 0.00 95 1003.1
20181119022523 52 149 0.0 0.0 0.00 0.47 0.00 95 1003.1
20181119022022 52 149 0.0 0.0 0.00 0.47 0.00 95 1003.1
20181119021520 52 149 0.0 0.0 0.00 0.47 0.00 95 1003.2
20181119021016 52 149 0.0 0.0 0.00 0.47 0.00 95 1003.2
20181119020514 53 149 0.0 0.0 0.00 0.47 0.00 95 1003.3
20181119020015 53 149 0.0 0.0 0.00 0.47 0.00 95 1003.2
20181119015513 53 149 0.0 3.0 0.00 0.47 0.00 95 1003.3
20181119015031 53 149 0.0 3.0 0.00 0.47 0.00 95 1003.3
20181119014516 53 88 0.0 5.0 0.00 0.47 0.00 95 1003.3
20181119014014 53 55 3.0 5.0 0.00 0.47 0.00 95 1003.3
20181119013516 53 77 3.0 5.0 0.00 0.47 0.00 95 1003.3
20181119013031 53 67 0.0 0.0 0.00 0.47 0.00 95 1003.4
20181119012528 53 67 0.0 0.0 0.00 0.47 0.00 95 1003.4
20181119012022 53 67 0.0 2.0 0.00 0.47 0.00 95 1003.5
20181119011523 53 67 0.0 2.0 0.00 0.47 0.00 95 1003.5
20181119011025 53 67 0.0 0.0 0.00 0.47 0.00 95 1003.5
20181119010522 53 67 0.0 0.0 0.00 0.47 0.00 95 1003.5
20181119010020 53 67 0.0 0.0 0.00 0.47 0.00 95 1003.5
20181119005521 53 67 0.0 0.0 0.00 0.47 0.00 95 1003.5
20181119005019 54 67 0.0 0.0 0.00 0.47 0.00 95 1003.4
20181119004521 54 67 0.0 0.0 0.00 0.47 0.00 95 1003.4
20181119004019 54 67 0.0 1.0 0.00 0.47 0.00 95 1003.5
20181119003524 54 67 0.0 1.0 0.00 0.47 0.00 95 1003.5
20181119003022 54 67 0.0 0.0 0.00 0.47 0.00 95 1003.5
20181119002524 54 67 0.0 4.0 0.00 0.47 0.00 95 1003.5
20181119002022 54 67 0.0 4.0 0.00 0.47 0.00 95 1003.6
20181119001527 54 56 2.0 4.0 0.00 0.47 0.00 95 1003.6
20181119001025 54 111 2.0 4.0 0.00 0.47 0.00 95 1003.7
20181119000527 54 84 2.0 3.0 0.00 0.47 0.00 95 1003.7
20181119000027 54 78 0.0 3.0 0.00 0.47 0.00 95 1003.8
20181118235529 54 78 2.0 3.0 0.04 0.47 0.09 95 1003.8
20181118235027 54 74 0.0 0.0 0.04 0.47 0.09 95 1003.8
20181118234526 54 74 0.0 0.0 0.08 0.47 0.09 95 1003.8
20181118234024 54 74 0.0 0.0 0.08 0.47 0.09 95 1003.9
20181118233526 54 74 0.0 0.0 0.08 0.47 0.09 95 1003.9
20181118233027 54 74 0.0 4.0 0.08 0.47 0.09 95 1004.0
20181118232529 54 74 1.0 4.0 0.08 0.47 0.09 95 1003.9
20181118232024 54 74 0.0 3.0 0.08 0.47 0.09 95 1004.0
20181118231523 54 74 0.0 3.0 0.08 0.47 0.09 95 1004.1
20181118231024 54 74 2.0 4.0 0.12 0.47 0.09 95 1004.2
20181118230523 54 74 2.0 4.0 0.12 0.47 0.09 95 1004.3
20181118230023 54 74 2.0 3.0 0.16 0.47 0.09 95 1004.3
20181118225520 54 75 1.0 3.0 0.20 0.43 0.09 95 1004.3
20181118225019 54 75 2.0 3.0 0.24 0.43 0.09 95 1004.2
20181118224520 54 75 1.0 3.0 0.24 0.39 0.08 95 1004.3
20181118224018 54 74 2.0 5.0 0.24 0.39 0.08 95 1004.3
20181118223519 54 74 3.0 5.0 0.28 0.39 0.08 95 1004.4
20181118223031 54 67 3.0 4.0 0.31 0.39 0.08 95 1004.3
20181118222516 54 118 0.0 2.0 0.31 0.39 0.08 95 1004.3
20181118222031 54 118 0.0 3.0 0.31 0.39 0.08 95 1004.3